{"data":{"norad_id":66848,"epoch":"2026-05-25T01:46:41.932416Z","epoch_age_seconds":58706,"freshness":"FRESH","line1":"1 66848U 25281A   26145.07409644  .00013483  00000+0  49838-3 0  9995","line2":"2 66848  43.0049 272.4382 0003981 267.9174  92.1222 15.27590100 26544","mean_motion":15.275901,"eccentricity":0.0003981,"inclination_deg":43.0049,"raan_deg":272.4382,"arg_perigee_deg":267.9174,"mean_anomaly_deg":92.1222,"bstar":0.00049838,"rev_number":2654,"period_min":94.266125448181,"perigee_km":480.28742702768,"apogee_km":485.75027931798,"semimajor_km":6861.1558531728,"source":"CELESTRAK","updated_at":"2026-05-25T13:38:21.339766Z"}}